Location: Gälforsberget
(66.6500°N, 22.4167°E)
Time: 21:43:08
(UTC+00:00)

NOSS 3-1 (A) - Pass Details

Date: 11 April 2026
Orbit: 613 x 1593 km, 63.4° (Epoch: 10 January)

Event Time Altitude Azimuth Distance (km) Brightness Sun altitude
Rises 21:18:03 0° 287° (WNW) 3,439 6.9 -13.6°
Reaches altitude 10° 21:20:21 10° 282° (WNW) 2,622 6.2 -13.7°
Maximum altitude 21:26:18 50° 209° (SSW) 1,357 4.0 -13.9°
Enters shadow 21:32:38 15° 140° (SE) 2,905 5.4 -14.0°
